sat.trackr.live / text

‹ back to catalog

STARLINK-36429

NORAD 67356 · 2026-003Y

PAYLOAD ACTIVE UNKNOWN

§ Identity

Operator
Country
US
Launch date
2026-01-09
Launch site
AFETR
Launch vehicle
Mass (kg)
RCS (m²)

Purposes: comms

External: N2YO · Heavens-Above · Gunter

§ Orbital elements

Epoch: 2026-09-19T13:57:32.535648Z

Period
94.27 min
Inclination
43.0018°
Eccentricity
0.0001459
Mean motion
15.27588805 rev/d
Perigee alt
482.0 km
Apogee alt
484.0 km
Semi-major
6,861.2 km
B*
3.8171e-4
RAAN
212.3709°
Arg perigee
265.0786°
Mean anomaly
94.9899°
Rev number
3,847

§ Raw data

STARLINK-364291 67356U 26003Y   26262.58162657  .00010259  00000+0  38171-3 0  99952 67356  43.0018 212.3709 0001459 265.0786  94.9899 15.27588805 38471

JSON: /api/v1/satellites/67356 · /tle

For live sub-satellite position, see the globe view (requires WebGL).

§ Visibility from observer

Set your observer location to see the next 7 days of passes ≥ 10°. The values pass through the URL so the page stays shareable.

No JS? Fill the form by hand. The geolocation button needs JavaScript.